HIMAWARI-9

Last updated on Thu Jul 03 2025 00:02:22 GMT+0000 (Coordinated Universal Time)

1 41836U 16064A 25183.59448902 -.00000268 00000+0 00000+0 0 9994 2 41836 0.0455 255.0961 0001258 218.8882 161.6290 1.00270879 31709
UTC large
Height (km)
Speed (km/s)
/
Latitude / Longitude
Inclination (degrees)
Orbital Period (minutes)
Azimuth
Elevation
Range (km)
Doppler Factor

Next 0 passes for location: London (51.5072 / 0.1276)

Sorry there are no passes over London.